TimeMDT,TemperatureF,Dew PointF,Humidity,Sea Level PressureIn,VisibilityMPH,Wind Direction,Wind SpeedMPH,Gust SpeedMPH,PrecipitationIn,Events,Conditions,WindDirDegrees,DateUTC
12:53 AM,48.9,25.0,39,30.10,10.0,West,12.7,-,N/A,,Clear,260,2013-10-19 06:53:00
1:53 AM,46.9,26.1,44,30.08,10.0,WSW,8.1,-,N/A,,Clear,250,2013-10-19 07:53:00
2:53 AM,45.0,26.1,48,30.09,10.0,Calm,Calm,-,N/A,,Clear,0,2013-10-19 08:53:00
3:53 AM,46.0,26.1,46,30.08,10.0,West,9.2,-,N/A,,Clear,280,2013-10-19 09:53:00
4:53 AM,45.0,25.0,46,30.09,10.0,WNW,3.5,-,N/A,,Clear,290,2013-10-19 10:53:00
5:53 AM,44.1,24.1,45,30.09,10.0,West,3.5,-,N/A,,Clear,270,2013-10-19 11:53:00
6:53 AM,45.0,24.1,44,30.08,10.0,West,9.2,-,N/A,,Clear,270,2013-10-19 12:53:00
7:53 AM,44.1,21.9,42,30.10,10.0,West,4.6,-,N/A,,Clear,280,2013-10-19 13:53:00
8:53 AM,48.0,23.0,37,30.10,10.0,Calm,Calm,-,N/A,,Clear,0,2013-10-19 14:53:00
9:53 AM,51.1,24.1,35,30.08,10.0,West,16.1,20.7,N/A,,Clear,280,2013-10-19 15:53:00
10:53 AM,53.1,24.1,32,30.07,10.0,West,16.1,23.0,N/A,,Clear,280,2013-10-19 16:53:00
11:53 AM,55.9,24.1,29,30.04,10.0,West,18.4,25.3,N/A,,Clear,260,2013-10-19 17:53:00
12:53 PM,57.0,25.0,29,30.02,10.0,West,18.4,26.5,N/A,,Clear,270,2013-10-19 18:53:00
1:53 PM,57.9,25.0,28,30.00,10.0,West,12.7,23.0,N/A,,Clear,280,2013-10-19 19:53:00
2:53 PM,59.0,25.0,27,30.00,10.0,WNW,11.5,21.9,N/A,,Clear,290,2013-10-19 20:53:00
3:53 PM,59.0,25.0,27,29.96,10.0,West,17.3,-,N/A,,Partly Cloudy,270,2013-10-19 21:53:00
4:53 PM,61.0,24.1,24,29.95,10.0,WNW,12.7,19.6,N/A,,Mostly Cloudy,300,2013-10-19 22:53:00
5:53 PM,60.1,23.0,24,29.95,10.0,WNW,11.5,-,N/A,,Partly Cloudy,300,2013-10-19 23:53:00
6:53 PM,57.9,23.0,26,29.96,10.0,WNW,10.4,-,N/A,,Overcast,290,2013-10-20 00:53:00
7:53 PM,57.9,21.9,25,29.96,10.0,NW,16.1,21.9,N/A,,Overcast,310,2013-10-20 01:53:00
8:53 PM,57.0,21.9,26,29.97,10.0,West,11.5,-,N/A,,Overcast,280,2013-10-20 02:53:00
9:53 PM,53.1,24.1,32,30.01,10.0,WNW,6.9,-,N/A,,Overcast,300,2013-10-20 03:53:00
10:53 PM,53.1,26.1,35,30.04,10.0,NNW,10.4,-,N/A,,Overcast,330,2013-10-20 04:53:00
11:53 PM,51.1,28.0,41,30.06,10.0,North,5.8,-,N/A,,Overcast,10,2013-10-20 05:53:00